Location: Dulzura
(32.6442°N, 116.7814°W)
Time: 05:58:14
(UTC+00:00)

Hubble Space Telescope - Pass Details

Date: 11 December 2022
Orbit: 529 x 532 km, 28.5° (Epoch: 05 February)

Event Time Altitude Azimuth Distance (km) Brightness Sun altitude
Exits shadow 14:01:23 - 260° (W) 2,062 3.2 -8.1°
Reaches altitude 10° 14:02:10 10° 258° (WSW) 1,765 2.9 -7.9°
Maximum altitude 14:06:03 44° 185° (S) 737 1.6 -7.1°
Drops below altitude 10° 14:09:56 10° 113° (ESE) 1,760 5.3 -6.4°
Sets 14:12:15 0° 107° (ESE) 2,648 6.8 -6.0°
